Regional Weather Roundup
Issued by NWS

Home | Current Version | Previous Version | Text Only | Print | Product List | Glossary Off
Versions: 1 2 3 4 5 6 7 8 9 10 11 12 13 14 15 16 17 18 19 20 21 22 23 24 25 26 27 28 29 30 31 32 33 34 35 36 37 38 39 40 41 42 43 44 45 46 47 48 49 50

000
ASUS43 KMKX 302011
RWRWI

WISCONSIN REGIONAL WEATHER ROUNDUP
NATIONAL WEATHER SERVICE MILWAUKEE/SULLIVAN WI
300 PM CDT TUE SEP 30 2014

NOTE: "FAIR" INDICATES FEW OR NO CLOUDS BELOW 12,000 FEET WITH NO
SIGNIFICANT WEATHER AND/OR OBSTRUCTIONS TO VISIBILITY.

WIZ001-002-006>008-014>016-023>028-302100-
NORTHWEST WISCONSIN

CITY           SKY/WX    TMP DP  RH WIND       PRES   REMARKS
SUPERIOR ARPT  PTSUNNY   51  43  75 NE14G22   30.03F
ASHLAND        SUNNY     52  43  71 N12       30.06F
HAYWARD        SUNNY     59  41  51 SE6       30.01F
SIREN          MOSUNNY   55  42  61 SE6       30.00F
CUMBERLAND     SUNNY     54  41  62 SE6       30.00F
RICE LAKE      SUNNY     54  42  62 SE7       30.02F
CHETEK         SUNNY     55  43  63 E3        30.01F
LADYSMITH      SUNNY     61  43  51 SE3       30.02F
EAU CLAIRE     MOSUNNY   56  42  59 VRB5      30.01F
MENOMONIE      MOSUNNY   56  42  59 E7        30.01F
NEW RICHMOND   PTSUNNY   55  41  61 E9        29.98F
OSCEOLA        PTSUNNY   55  44  65 E12       30.00F
$$

WIZ003>005-009-010-017-018-302100-
NORTH CENTRAL WISCONSIN

CITY           SKY/WX    TMP DP  RH WIND       PRES   REMARKS
MANITOWISH WTR SUNNY     52  42  69 SE5       30.04F
ARBOR VITAE    SUNNY     55  42  63 SE6       30.04F
WOODRUFF       SUNNY     55  42  63 SE6       30.04F
RHINELANDER    SUNNY     54  42  64 VRB5      30.05F
EAGLE RIVER    SUNNY     54  40  59 NE5       30.04F
LAND O LAKES   SUNNY     55  42  63 E5        30.06F
PHILLIPS       MOSUNNY   58  42  56 CALM      30.02F
TOMAHAWK       SUNNY     56  42  60 CALM      30.04F
MEDFORD        SUNNY     56  43  61 E5        30.02F
MERRILL        SUNNY     56  42  59 SE6       30.04F
$$

WIZ029-030-035-036-043>047-302100-
CENTRAL WISCONSIN

CITY           SKY/WX    TMP DP  RH WIND       PRES   REMARKS
WAUSAU         SUNNY     53  41  63 SW6       30.04F
MOSINEE        SUNNY     52  43  71 SE7       30.06F
MARSHFIELD     SUNNY     55  43  63 SE9       30.02F
STEVENS POINT  MOSUNNY   50  40  70 NE6       30.05F
WAUPACA        CLOUDY    51  43  72 SE6       30.08S
WAUTOMA        NOT AVBL
WISC RAPIDS    SUNNY     53  41  63 NE8       30.05F
CAMP DOUGLAS   PTSUNNY   50  46  87 E9        30.04F
$$

WIZ011>013-019>022-031-037>040-048>050-302100-
NORTHEAST WISCONSIN

CITY           SKY/WX    TMP DP  RH WIND       PRES   REMARKS
ANTIGO         MOSUNNY   52  43  71 CALM      30.05F
SHAWANO        CLOUDY    50  42  73 N3        30.08F
OCONTO         CLOUDY    49  42  78 CALM      30.08F
STURGEON BAY   NOT AVBL
GREEN BAY      CLOUDY    49  43  80 NE6       30.08F
MANITOWOC      NOT AVBL
APPLETON       CLOUDY    46  39  76 CALM      30.08F
CLINTONVILLE   CLOUDY    48  39  71 E5        30.08S
OSHKOSH        CLOUDY    49  43  80 NE9       30.07S
$$

WIZ032>034-041-042-053>061-302100-
SOUTHWEST WISCONSIN

CITY           SKY/WX    TMP DP  RH WIND       PRES   REMARKS
LA CROSSE      PTSUNNY   55  43  63 E9        30.01F
SPARTA         MOSUNNY   51  41  68 E9        30.04F
VIROQUA        PTSUNNY   52  43  71 E8        30.02F
BOSCOBEL       PTSUNNY   53  43  68 E3        30.04F
PRAIRIE DU CHI PTSUNNY   56  44  62 E9        30.00F
PLATTEVILLE    CLOUDY    55  44  68 E7        30.02F
$$

WIZ056-057-062-063-064-067-068-302100-
SOUTH CENTRAL WISCONSIN

CITY           SKY/WX    TMP DP  RH WIND       PRES   REMARKS
REEDSBURG      CLOUDY    48  42  79 E8        30.04F
BARABOO/DELLS  CLOUDY    47  40  76 E7        30.05F
LONE ROCK      CLOUDY    55  41  59 E7        30.05F
MINERAL POINT  CLOUDY    52  43  71 NE8       30.03F
MADISON        CLOUDY    50  42  74 E9        30.05F
MIDDLETON      CLOUDY    50  42  72 E7        30.05F
WATERTOWN      CLOUDY    50  43  77 E8        30.05F
MONROE         CLOUDY    50  43  76 NE10      30.03F
JANESVILLE     MOSUNNY   55  43  62 NE7       30.04S
$$

WIZ051-052-058>065-066-070>072-302100-
SOUTHEAST WISCONSIN

CITY           SKY/WX    TMP DP  RH WIND       PRES   REMARKS
MILWAUKEE      PTSUNNY   54  45  71 N18G24    30.05F
WAUKESHA       CLOUDY    52  43  71 N6        30.05F
MILWAUKEE/TIMM MOSUNNY   54  41  62 NE8       30.06S
RACINE         CLOUDY    53  46  77 N14       30.06F
BURLINGTON     CLOUDY    53  42  67 NE6       30.03F
KENOSHA        PTSUNNY   54  46  74 NE10      30.04F
FOND DU LAC    CLOUDY    50  43  77 NE9       30.07S
SHEBOYGAN      CLOUDY    50  42  74 N7        30.07F
WEST BEND      CLOUDY    52  41  66 E6        30.05F
JUNEAU         CLOUDY    49  42  76 E5        30.07F
$$

LSZ147-162-302100-
LAKE SUPERIOR

STATION/POSITION TIME  TEMP    WIND        PRES    WAVE
                       AIR SEA DIR/SP/G            HT/PER
                 (UTC) (F)     (DEG/KT/KT) (MB)    (FT/S)
W MID LAKE BUOY  1950   46 50   70/ 10/ 12 1019.5F   2/ 5
DEVILS ISLAND    2000   46      80/ 15/ 19 1019.1F
SAXON HARBOR     1900   48      30/  8/ 11 1018.6F
$$

LMZ867-665-643>646-302100-
LAKE MICHIGAN

STATION/POSITION TIME  TEMP    WIND        PRES    WAVE
                       AIR SEA DIR/SP/G            HT/PER
                 (UTC) (F)     (DEG/KT/KT) (MB)    (FT/S)
CHAMBERS ISLAND  1900   49     360/  7/ 10 1018.6F
S GREEN BAY BUOY 2000   48                 1019.4F
N MID LAKE BUOY  1950   50 58  360/  8/ 12 1018.1F   1/ 4
NORTHPORT PIER   1900   49     360/ 10/ 11 1018.3F
KEWAUNEE LAKESHO 1900   49      40/  7/ 11 1017.6F
SHEBOYGAN LAKESH 2000   48 54  360/ 12/ 13 1018.6F
PORT WASHINGTON  1900   53      30/  9/ 14 1018.6F
ATWATER BUOY     2000   52      10/ 16/ 19 1018.4F
MILWAUKEE LAKESH 1900   50      30/ 14/ 16   N/A
S MID LAKE BUOY  1950   54 62  360/ 16/ 19 1016.5F   4/ 7
KENOSHA   LAKESH 2000   52      20/ 16/ 18 1016.9F
$$

TC  - TEMPERATURE IN CELSIUS
VSB - VISIBILITY IN STATUTE MILES
WCI - WIND CHILL INDEX
HX  - HEAT INDEX




USA.gov is the U.S. government's official web portal to all federal, state and local government web resources and services.